Home   Weather   Entebbe   Past weeks

Flag for Uganda Past Weather in Entebbe, Uganda — Yesterday and Last 2 Weeks

Now
79 °F

Scattered clouds.


Feels Like: 81 °F
Forecast: 68 / 77 °F
Wind: 10 mph from Southeast

Location: Entebbe Airport

Current Time: Dec 7, 2016 at 1:52:57 pm

Latest Report: Dec 7, 2016 at 1:00 pm


Visibility: 6 mi

Pressure: 30.04 "Hg (26.31 "Hg at 1160m altitude)

Humidity: 70%

Dew Point: 68 °F

Location of EntebbeLocation

Past Weather in Entebbe — Graph

°F

Entebbe Temperature Yesterday

Maximum temperature yesterday: 82 °F (at 12:00 pm)
Minimum temperature yesterday: 64 °F (at 5:00 am)
Average temperature yesterday: 73 °F

High & Low Weather Summary for the Past Weeks

 TemperatureHumidityPressure
High86 °F (Nov 24, 3:00 pm)100% (Nov 28, 4:00 am)30.12 "Hg (Nov 28, 4:00 am)
Low63 °F (Dec 3, 6:00 am)42% (Dec 6, 12:00 pm)29.89 "Hg (Nov 28, 5:00 pm)
Average73 °F80%30.02 "Hg
* Reported Nov 22 12:00 pm — Dec 7 12:00 pm, Entebbe, Weather by CustomWeather, © 2016

Note: Actual official high and low records may vary slightly from our data, if they occured in-between our weather recording intervals... More about our weather records

Advertising

Entebbe Weather History for the Previous 24 Hours

Scroll right to see more
 ConditionsComfort  
Time TempWeatherWind HumidityBarometerVisibility
12:00 pm
Wed, Dec 7
79 °FScattered clouds.14 mph70%30.07 "Hg6 mi
11:00 am79 °FPartly sunny.9 mph70%30.09 "Hg5 mi
10:00 am79 °FPartly sunny.5 mph58%30.09 "Hg5 mi
9:00 am73 °FPartly sunny.2 mph69%30.09 "Hg5 mi
8:00 am66 °FPartly sunny.7 mph94%30.09 "Hg4 mi
7:00 am66 °FPartly sunny.3 mph94%30.07 "Hg5 mi
6:00 am66 °FPassing clouds.6 mph94%30.04 "Hg6 mi
5:00 am68 °FPassing clouds.5 mph83%30.04 "Hg6 mi
3:00 am68 °FPassing clouds.7 mph83%30.01 "HgN/A
2:00 am68 °FPassing clouds.7 mph88%30.01 "HgN/A
1:00 am70 °FPassing clouds.5 mph88%30.01 "HgN/A
12:00 am70 °FPassing clouds.6 mph88%30.04 "HgN/A
11:00 pm
Tue, Dec 6
72 °FPassing clouds.6 mph88%30.04 "HgN/A
10:00 pm73 °FPassing clouds.6 mph78%30.04 "HgN/A
8:00 pm75 °FPassing clouds.8 mph65%30.01 "HgN/A
7:00 pm75 °FPassing clouds.9 mph69%29.98 "HgN/A
6:00 pm79 °FSunny.13 mph58%29.98 "Hg10 mi
5:00 pm79 °FPartly sunny.10 mph58%29.95 "HgN/A
4:00 pm79 °FPartly sunny.13 mph61%29.95 "HgN/A
3:00 pm81 °FPartly sunny.12 mph54%29.95 "Hg6 mi
2:00 pm81 °FPassing clouds.10 mph66%29.98 "Hg6 mi
1:00 pm81 °FPassing clouds.9 mph51%30.01 "Hg6 mi
Weather by CustomWeather, © 2016

See weather overviewHow to use our weather pages